Погода в Гостинове

Россия / Орловская область     52°45′23″N   36°19′57″E
темп.,
°C
ветер,
м/с
пор.,
м/с
влажн.,
%
обл.,
%
осадки,
мм/ч
давл.,
гПа
погр.,
м
7 марта, вс
вс700:00−12зюз44890 0.0 102073
03:00−12юз510920 0.0 1018189
06:00−10юз7168719 0.0 1015372
09:00−7юз9178359 0.0 1011585
12:00−4юз111787100 0.0 10071040
15:00−2зюз121990100 0.3 10031291
18:00−1зюз101891100 0.5 10011177
21:00−3зсз81680100 2.2 10021059
8 марта, пн
пн800:00−5з41181100 0.0 1003285
03:00−6зюз5138498 0.0 1003306
06:00−6зюз5139269 0.0 1002359
09:00−6з6129277 0.0 1003601
12:00−5з7108794 0.1 1004956
15:00−4зсз598187 0.2 10061000
18:00−7зсз512790 0.0 1008290
21:00−9зсз489542 0.1 1010185
9 марта, вт
вт900:00−12зсз359564 0.0 101286
03:00−12зсз359772 0.1 1014101
06:00−12сз239794 0.1 101547
09:00−11ссз359597 0.1 1017240
12:00−10ссз3590100 0.1 1018492
15:00−9сз3586100 0.1 1019681
18:00−11зсз2392100 0.1 102025
21:00−13с239598 0.1 102222
10 марта, ср
ср1000:00−17ссз229530 0.0 102320
03:00−18зсз229415 0.0 102420
06:00−19з129815 0.0 102520
09:00−16з229424 0.0 102642
12:00−12юз238867 0.0 1026259
15:00−9ююз348783 0.0 1025424
18:00−11ю349397 0.0 102486
21:00−12ю369495 0.1 1025132
11 марта, чт
чт1100:00−9ююз4895100 0.7 1025299
03:00−9юз4995100 1.6 1024303
06:00−10ююз4893100 0.3 1023238
09:00−11ююз499293 0.3 1023225
12:00−7ююз589176 0.0 1022286
15:00−4ююз6108874 0.0 1021569
18:00−5ююз51287100 0.0 1020464
21:00−6ююз61481100 0.0 1019425